   Islands (Spain).  Observer D. Abreu. Measurers M. Micheli, D. Koschny, E.
   Schwab, M. Busch, A. Knöfel. 1.0-m f/4.4 reflector + CCD.
(K61) Rokycany Observatory  (N49.751403 E13.602600)  Czech Republic.
(K87) Dettelbach Vineyard Observatory  (N49.807693 E10.170110)  Germany.
(K88) GINOP-KHK, Piszkéstető  (N47.917622 E19.893600)  Hungary.  Observer K.
   Sárneczky. 0.60-m Schmidt + CCD.
(L01) Višnjan Observatory, Tičan  (N45.290900 E13.749300)  Croatia.
   Observers K. Korlević, E. Pettarin. Measurer E. Pettarin. 1.0-m f/2.9
   reflector + CCD.
(L02) NOAK Observatory, Stavraki  (N39.652455 E20.816580)  Greece.
(L29) Drebach-South Observatory, Windhoek  (S23.460102 E18.016900)  Namibia.
(L34) Galhassin Robotic Telescope, Isnello  (N37.939361 E14.020610)  Italy.
(Z80) Northolt Branch Observatory  (N51.554661 W0.371920)  UK.  Observer G.
   Wells. Measurer D. Bamberger. 0.25-m f/8 Ritchey-Chrétien + CCD.
(Z84) Calar Alto-Schmidt  (N37.224049 W2.548210)  Spain.

Orbital elements:  C0C2N31
   Perihelion 2019 Aug 16.026973 +/- 0.282 TT =  0:38:50 (JD 2458711.526973)
Epoch 2019 Jun  9.0 TT = JDT 2458643.5   Earth MOID: 0.0305   AutoNEOCP
M 304.83869072 +/- 0.37             (J2000 ecliptic)
n   0.81087407 +/- 0.00222          Peri.  257.32918 +/- 0.30
a   1.13893892 +/- 0.00208          Node    75.92484 +/- 0.0034
e   0.2001324 +/- 0.00112           Incl.   31.35429 +/- 0.10
P   1.22/443.96d           H 24.4   G  0.15   U  8.6  
q 0.91100028 +/- 0.00038    Q 1.36687757 +/- 0.00377
From 97 observations 2019 June 2-9; mean residual 2".93
Residuals in arcseconds: 
190602 F52  1.5+  1.7+    190606 711  1.5+  1.6+    190607 F51  .62+  .85+    
190602 F52  1.6+  1.7+    190606 711  .71-  .26+    190607 L34  .87-  .32+    
190605 703  1.3-  .87+    190606 711  1.4+  1.7+    190607 K88  .27+  .27+    
190605 703  .79-  2.2+    190606 160  .64+  1.6+    190607 K88  .55+  .69+    
190605 703  1.1+  1.1+    190606 160  .30+  1.0+    190607 K88  .27+  .31+    
190605 703  1.3+  1.4+    190606 160  .84+  1.3+    190607 L34  .09-  1.0+    
190605 I52  1.1+  1.7+    190606 160  1.7+  .53+    190607 595  .12-  .01+    
190605 I52  1.0+  1.3+    190606 160  1.5+  1.5+    190607 595  .16+  .14+    
190605 I52  .93+  1.4+    190606 L02  .04+  .72+    190607 I93  .52+  .33-    
190605 246 12.4- 18.3-    190606 L02  .41+  2.1+    190607 C95  .01-  .16+    
190605 246 10.5- 18.7-    190606 K87  .17+  .60+    190607 I93  .24+  .03-    
190605 246 13.4- 18.7-    190606 K87  .10+  .54+    190607 595  .06+  .10+    
190605 104  1.8+  1.9+    190606 K87  .18+  .28+    190607 958  .46-  .32-    
190605 K61  .41+  1.1+    190606 K87  .26+  1.8+    190607 I93  .26+  .39+    
190605 K61  .61+  1.2+    190606 K87  .21+  1.7+    190607 958  .15-  .93-    
190605 K61  .47+  1.1+    190606 K87  .17+  1.2+    190607 C95  .69+  .38+    
190605 104  1.5+  1.5+    190606 Z80  1.4+  1.7+    190607 958  .14-  .43-    
190605 104  1.7+  1.6+    190606 Z84  .62+  .85+    190608 H21  .33+  .35+    
190605 J04  1.4+  1.7+    190606 Z80  1.5+  1.2+    190608 H21  .30+  .31-    
190605 J04  1.0+  1.2+    190606 Z84  .44+  .35+    190608 H21  .35-  .04+    
190605 J04  1.1+  1.7+    190606 Z84  .51+  .80+    190608 I52  .30-  .25-    
190605 K87  .40+  1.1+    190606 Z80  .43+  1.0+    190608 I52  .01+  .24+    
190605 K87  .59+  1.2+    190606 Z84  .77+  1.2+    190608 I52  .08-  .29-    
190605 K87  .54+  1.2+    190606 Z84  .69+  .64+    190608 I52  .35+  .31-    
190605 K87  .68+  .98+    190606 Z84  .04+  .25-    190609 L29  1.7-  1.9-    
190605 L01  1.3+  1.6+    190607 I52  .79+  .47+    190609 L29  1.7-  1.6-    
190605 L01  1.5+  1.5+    190607 I52  1.1+  .95+    190609 L29  1.2-  1.1-    
190605 L01  1.3+  1.8+    190607 I52  .67+  .54+    190609 I52  .91-  .42-    
190606 I52  .99+  1.4+    190607 I52  .24+  .83+    190609 I52  .53+  .71-    
190606 I52  1.0+  1.6+    190607 F52  .32+  .53+    190609 I52  .28-  .20-    
190606 I52  1.1+  1.2+    190607 F52  .50+  .77+    190609 I52  .40-  1.6-    
190606 I52  1.1+  1.2+    190607 F52  .51+  .70+    
190606 711  1.5+  1.1+    190607 F52  .18+  .59+    

Ephemerides (geocentric):
Date (UTC) HH   RA              Dec         delta   r     elong  mag " sig PA
---- -- -- --  -------------   -----------  ------ ------ -----  --- ---- ---
2019 06 19 18  08 32 33.080   -53 21 59.18  .11115 1.0113  84.4 22.8 1.21  85
2019 06 19 19  08 32 07.208   -53 20 51.46  .11153 1.0112  84.3 22.8 1.21  85
2019 06 19 20  08 31 41.530   -53 19 43.83  .11190 1.0110  84.2 22.8 1.22  85
2019 06 19 21  08 31 16.045   -53 18 36.30  .11228 1.0109  84.2 22.8 1.22  86
2019 06 19 22  08 30 50.751   -53 17 28.86  .11265 1.0108  84.1 22.9 1.23  86
2019 06 19 23  08 30 25.645   -53 16 21.52  .11302 1.0107  84.0 22.9 1.24  86
2019 06 20 00  08 30 00.726   -53 15 14.29  .11340 1.0105  84.0 22.9 1.24  86
2019 06 20 01  08 29 35.992   -53 14 07.16  .11377 1.0104  83.9 22.9 1.25  87
2019 06 20 02  08 29 11.441   -53 13 00.13  .11415 1.0103  83.8 22.9 1.26  87
2019 06 20 03  08 28 47.071   -53 11 53.22  .11452 1.0102  83.8 22.9 1.26  87
2019 06 20 04  08 28 22.879   -53 10 46.42  .11490 1.0100  83.7 22.9 1.27  88
2019 06 20 05  08 27 58.865   -53 09 39.74  .11527 1.0099  83.6 22.9 1.27  88
2019 06 20 06  08 27 35.027   -53 08 33.17  .11565 1.0098  83.6 22.9 1.28  88
2019 06 20 07  08 27 11.361   -53 07 26.71  .11603 1.0097  83.5 22.9 1.29  89
2019 06 20 08  08 26 47.868   -53 06 20.38  .11640 1.0095  83.5 22.9 1.29  89
2019 06 20 09  08 26 24.545   -53 05 14.17  .11678 1.0094  83.4 23.0 1.30  89
2019 06 20 10  08 26 01.389   -53 04 08.09  .11715 1.0093  83.3 23.0 1.31  90
2019 06 20 11  08 25 38.401   -53 03 02.13  .11753 1.0092  83.3 23.0 1.31  90
2019 06 20 12  08 25 15.577   -53 01 56.29  .11790 1.0090  83.2 23.0 1.32  90
2019 06 20 13  08 24 52.916   -53 00 50.59  .11828 1.0089  83.1 23.0 1.32  91
2019 06 20 14  08 24 30.417   -52 59 45.01  .11866 1.0088  83.1 23.0 1.33  91
2019 06 20 15  08 24 08.077   -52 58 39.57  .11903 1.0087  83.0 23.0 1.34  91
2019 06 20 16  08 23 45.896   -52 57 34.26  .11941 1.0085  83.0 23.0 1.34  91
2019 06 20 17  08 23 23.871   -52 56 29.08  .11978 1.0084  82.9 23.0 1.35  92
2019 06 20 18  08 23 02.001   -52 55 24.04  .12016 1.0083  82.8 23.0 1.36  92
2019 06 20 19  08 22 40.285   -52 54 19.14  .12054 1.0082  82.8 23.0 1.36  92
2019 06 20 20  08 22 18.721   -52 53 14.37  .12091 1.0080  82.7 23.0 1.37  93
2019 06 20 21  08 21 57.307   -52 52 09.75  .12129 1.0079  82.7 23.1 1.38  93
2019 06 20 22  08 21 36.042   -52 51 05.26  .12167 1.0078  82.6 23.1 1.38  93
2019 06 20 23  08 21 14.924   -52 50 00.92  .12204 1.0077  82.6 23.1 1.39  94
2019 06 21 00  08 20 53.953   -52 48 56.71  .12242 1.0075  82.5 23.1 1.40  94
2019 06 21 01  08 20 33.125   -52 47 52.65  .12280 1.0074  82.4 23.1 1.40  94
2019 06 21 02  08 20 12.441   -52 46 48.74  .12317 1.0073  82.4 23.1 1.41  94
2019 06 21 03  08 19 51.899   -52 45 44.96  .12355 1.0072  82.3 23.1 1.42  95
2019 06 21 04  08 19 31.497   -52 44 41.34  .12393 1.0070  82.3 23.1 1.42  95
2019 06 21 05  08 19 11.233   -52 43 37.86  .12430 1.0069  82.2 23.1 1.43  95
2019 06 21 06  08 18 51.107   -52 42 34.52  .12468 1.0068  82.2 23.1 1.44  96
2019 06 21 07  08 18 31.118   -52 41 31.34  .12506 1.0067  82.1 23.1 1.44  96
2019 06 21 08  08 18 11.263   -52 40 28.30  .12543 1.0065  82.0 23.1 1.45  96
2019 06 21 09  08 17 51.542   -52 39 25.41  .12581 1.0064  82.0 23.1 1.46  96
2019 06 21 10  08 17 31.953   -52 38 22.67  .12619 1.0063  81.9 23.2 1.46  97
2019 06 21 11  08 17 12.494   -52 37 20.08  .12656 1.0062  81.9 23.2 1.47  97
2019 06 21 12  08 16 53.166   -52 36 17.64  .12694 1.0060  81.8 23.2 1.48  97
2019 06 21 13  08 16 33.966   -52 35 15.35  .12732 1.0059  81.8 23.2 1.48  98
2019 06 21 14  08 16 14.893   -52 34 13.21  .12770 1.0058  81.7 23.2 1.49  98
2019 06 21 15  08 15 55.946   -52 33 11.22  .12807 1.0057  81.7 23.2 1.50  98
2019 06 21 16  08 15 37.124   -52 32 09.39  .12845 1.0056  81.6 23.2 1.50  98
2019 06 21 17  08 15 18.426   -52 31 07.71  .12883 1.0054  81.6 23.2 1.51  99